Weather History for Cheboygan, MI

Change the Weather History Date:

Tuesday, October 1, 2013

  Actual Average (KPLN) Record (KPLN)
Temperature  
Mean Temperature 67 °F -  
Max Temperature 79 °F 63 °F 82 °F (1971)
Min Temperature 55 °F 39 °F 21 °F (1955)
Cooling Degree Days 2    
Growing Degree Days 17 (Base 50)    
Moisture  
Dew Point 54 °F    
Average Humidity 67    
Maximum Humidity 82    
Minimum Humidity 43    
Precipitation  
Precipitation 0.00 in - - ()
Sea Level Pressure  
Sea Level Pressure 29.79 in    
Wind  
Wind Speed 8 mph (SSW)    
Max Wind Speed 21 mph    
Max Gust Speed 32 mph    
Visibility 10 miles    
Events      
Averages and records for this station are not official NWS values.
T = Trace of Precipitation, MM = Missing Value Source: NWS Daily Summary

Daily Weather History Graph

Daily Weather History Graph

Search for Another Location

Airport:

Trip Planner

Search our weather history database for the weather conditions in past years. The results will help you decide how hot, cold, wet, or windy it might be!

Date:

Astronomy

Oct. 01, 2013 Rise Set
Actual Time 7:36 AM EDT 7:17 PM EDT
Civil Twilight 7:07 AM EDT 7:47 PM EDT
Nautical Twilight 6:32 AM EDT 8:21 PM EDT
Astronomical Twilight 5:57 AM EDT 8:56 PM EDT
Moon 4:01 AM EDT (10/1) 5:28 PM EDT (10/1)
Length of Visible Light 12h 40m
Length of Day
11h 41m
Waning Crescent, 12% of the Moon is Illuminated
Oct 1
Waning Crescent
Oct 4
New
Oct 11
First Quarter
Oct 18
Full
Oct 26
Last Quarter

Hourly Weather History & Observations

Time (EDT) Temp. Dew Point Humidity Pressure Visibility Wind Dir Wind Speed Gust Speed Precip Events Conditions
12:16 AM 58.1 °F 48.2 °F 70% 29.87 in 10.0 mi South 4.6 mph - N/A   Clear
12:36 AM 57.6 °F 48.6 °F 72% 29.87 in 10.0 mi South 4.6 mph - N/A   Clear
12:55 AM 57.6 °F 48.6 °F 72% 29.86 in 10.0 mi South 5.8 mph - N/A   Clear
1:16 AM 58.1 °F 48.7 °F 71% 29.87 in 10.0 mi South 6.9 mph - N/A   Clear
1:36 AM 57.9 °F 48.9 °F 72% 29.88 in 10.0 mi South 5.8 mph - N/A   Clear
1:56 AM 57.6 °F 49.1 °F 73% 29.88 in 10.0 mi South 5.8 mph - N/A   Clear
2:16 AM 57.4 °F 48.9 °F 73% 29.88 in 10.0 mi South 5.8 mph - N/A   Clear
2:35 AM 57.2 °F 48.6 °F 73% 29.87 in 10.0 mi South 6.9 mph - N/A   Clear
2:56 AM 56.8 °F 49.1 °F 75% 29.88 in 10.0 mi South 4.6 mph - N/A   Clear
3:16 AM 56.1 °F 49.3 °F 78% 29.87 in 10.0 mi South 5.8 mph - N/A   Clear
3:36 AM 56.3 °F 49.3 °F 77% 29.86 in 10.0 mi South 5.8 mph - N/A   Clear
3:55 AM 56.3 °F 49.5 °F 78% 29.86 in 10.0 mi SSE 4.6 mph - N/A   Clear
4:16 AM 56.3 °F 49.1 °F 77% 29.85 in 10.0 mi SSE 5.8 mph - N/A   Clear
4:36 AM 55.8 °F 49.1 °F 78% 29.85 in 10.0 mi SSE 4.6 mph - N/A   Clear
4:55 AM 55.6 °F 49.1 °F 79% 29.84 in 10.0 mi SSE 4.6 mph - N/A   Clear
5:16 AM 55.8 °F 48.9 °F 78% 29.84 in 10.0 mi South 5.8 mph - N/A   Clear
5:35 AM 55.9 °F 48.9 °F 77% 29.84 in 10.0 mi South 4.6 mph - N/A   Clear
5:56 AM 55.4 °F 48.7 °F 78% 29.83 in 10.0 mi South 4.6 mph - N/A   Clear
6:16 AM 55.4 °F 49.1 °F 79% 29.83 in 10.0 mi South 4.6 mph - N/A   Clear
6:36 AM 55.4 °F 49.3 °F 80% 29.83 in 10.0 mi South 5.8 mph - N/A   Clear
6:56 AM 55.8 °F 49.5 °F 79% 29.83 in 10.0 mi South 5.8 mph - N/A   Clear
7:15 AM 56.3 °F 49.6 °F 78% 29.83 in 10.0 mi South 5.8 mph - N/A   Clear
7:36 AM 56.5 °F 49.6 °F 78% 29.82 in 10.0 mi South 6.9 mph - N/A   Clear
7:56 AM 57.4 °F 50.0 °F 76% 29.82 in 10.0 mi South 6.9 mph - N/A   Clear
8:15 AM 58.3 °F 50.4 °F 75% 29.82 in 10.0 mi South 8.1 mph - N/A   Clear
8:36 AM 59.2 °F 50.7 °F 74% 29.82 in 10.0 mi South 5.8 mph - N/A   Clear
8:55 AM 59.5 °F 50.9 °F 73% 29.81 in 10.0 mi South 5.8 mph - N/A   Clear
9:16 AM 60.6 °F 51.6 °F 72% 29.81 in 10.0 mi South 6.9 mph - N/A   Clear
9:36 AM 61.7 °F 52.5 °F 72% 29.80 in 10.0 mi South 5.8 mph - N/A   Clear
9:55 AM 62.6 °F 52.9 °F 70% 29.80 in 10.0 mi South 9.2 mph - N/A   Clear
10:16 AM 63.9 °F 54.0 °F 70% 29.79 in 10.0 mi South 8.1 mph - N/A   Clear
10:35 AM 64.4 °F 54.7 °F 71% 29.79 in 10.0 mi South 8.1 mph - N/A   Clear
10:55 AM 66.2 °F 55.6 °F 69% 29.79 in 10.0 mi SSW 8.1 mph - N/A   Clear
11:16 AM 68.2 °F 56.7 °F 67% 29.79 in 10.0 mi SSW 9.2 mph - N/A   Clear
11:34 AM 71.2 °F 57.7 °F 62% 29.79 in 10.0 mi SW 9.2 mph 18.4 mph N/A   Clear
11:56 AM 72.1 °F 57.9 °F 61% 29.77 in 10.0 mi SSW 12.7 mph 18.4 mph N/A   Clear
12:15 PM 73.4 °F 58.1 °F 59% 29.75 in 10.0 mi South 11.5 mph 19.6 mph N/A   Clear
12:36 PM 74.1 °F 58.1 °F 57% 29.76 in 10.0 mi SSW 11.5 mph 20.7 mph N/A   Clear
12:56 PM 75.2 °F 57.9 °F 55% 29.75 in 10.0 mi SSW 15.0 mph 20.7 mph N/A   Clear
1:15 PM 76.5 °F 57.6 °F 52% 29.75 in 10.0 mi SSW 13.8 mph 18.4 mph N/A   Clear
1:36 PM 77.0 °F 57.2 °F 50% 29.74 in 10.0 mi South 15.0 mph 21.9 mph N/A   Clear
1:55 PM 77.7 °F 56.3 °F 48% 29.73 in 10.0 mi SW 17.3 mph 21.9 mph N/A   Clear
2:16 PM 77.4 °F 56.8 °F 49% 29.72 in 10.0 mi SSW 12.7 mph 24.2 mph N/A   Clear
2:36 PM 79.3 °F 56.1 °F 45% 29.70 in 10.0 mi South 16.1 mph 21.9 mph N/A   Clear
2:55 PM 79.7 °F 55.4 °F 43% 29.71 in 10.0 mi SW 13.8 mph 21.9 mph N/A   Clear
3:16 PM 78.3 °F 54.0 °F 43% 29.71 in 10.0 mi SW 18.4 mph 29.9 mph N/A   Clear
3:35 PM 78.3 °F 55.2 °F 45% 29.71 in 10.0 mi SW 20.7 mph 32.2 mph N/A   Clear
3:56 PM 79.7 °F 55.6 °F 43% 29.71 in 10.0 mi SW 17.3 mph 29.9 mph N/A   Clear
4:16 PM 79.2 °F 57.2 °F 47% 29.71 in 10.0 mi WSW 16.1 mph 25.3 mph N/A   Clear
4:35 PM 77.0 °F 57.7 °F 51% 29.72 in 10.0 mi WSW 16.1 mph 26.5 mph N/A   Clear
4:56 PM 76.3 °F 56.7 °F 51% 29.72 in 10.0 mi WSW 19.6 mph 26.5 mph N/A   Clear
5:15 PM 75.7 °F 56.8 °F 52% 29.73 in 10.0 mi WSW 16.1 mph 25.3 mph N/A   Clear
5:36 PM 75.4 °F 57.2 °F 53% 29.74 in 10.0 mi WSW 17.3 mph 26.5 mph N/A   Clear
5:56 PM 74.7 °F 57.2 °F 54% 29.74 in 10.0 mi WSW 18.4 mph 26.5 mph N/A   Clear
6:15 PM 73.9 °F 57.7 °F 57% 29.75 in 10.0 mi WSW 15.0 mph 24.2 mph N/A   Clear
6:36 PM 72.7 °F 58.1 °F 60% 29.76 in 10.0 mi WSW 15.0 mph 21.9 mph N/A   Clear
6:56 PM 71.6 °F 58.5 °F 63% 29.76 in 10.0 mi WSW 11.5 mph 18.4 mph N/A   Clear
7:15 PM 70.7 °F 59.0 °F 66% 29.77 in 10.0 mi WSW 10.4 mph - N/A   Clear
7:36 PM 69.8 °F 59.0 °F 68% 29.77 in 10.0 mi SW 9.2 mph - N/A   Clear
7:56 PM 69.4 °F 59.0 °F 69% 29.78 in 10.0 mi SW 8.1 mph - N/A   Clear
8:16 PM 69.3 °F 59.2 °F 70% 29.78 in 10.0 mi SW 8.1 mph - N/A   Clear
8:35 PM 69.1 °F 59.4 °F 71% 29.78 in 10.0 mi SW 10.4 mph 19.6 mph N/A   Clear
8:56 PM 68.9 °F 59.5 °F 72% 29.78 in 10.0 mi SW 10.4 mph - N/A   Clear
9:16 PM 68.5 °F 59.5 °F 73% 29.78 in 10.0 mi SW 9.2 mph 16.1 mph N/A   Clear
9:35 PM 68.2 °F 59.9 °F 75% 29.78 in 10.0 mi SW 8.1 mph - N/A   Clear
9:56 PM 68.0 °F 59.9 °F 75% 29.78 in 10.0 mi SW 11.5 mph - N/A   Scattered Clouds
10:15 PM 68.2 °F 59.9 °F 75% 29.79 in 10.0 mi SW 11.5 mph 17.3 mph N/A   Scattered Clouds
10:36 PM 68.0 °F 59.9 °F 75% 29.79 in 10.0 mi SW 10.4 mph - N/A   Scattered Clouds
10:55 PM 67.6 °F 59.9 °F 76% 29.80 in 10.0 mi WSW 9.2 mph - N/A   Clear
11:16 PM 67.1 °F 59.9 °F 78% 29.81 in 10.0 mi West 4.6 mph - N/A   Scattered Clouds
11:36 PM 65.8 °F 59.2 °F 79% 29.82 in 10.0 mi West 4.6 mph - N/A   Scattered Clouds
11:55 PM 64.8 °F 59.0 °F 82% 29.82 in 10.0 mi West 4.6 mph - N/A   Clear